This is the latest recevied weather packets stored in our database for station/object IW0REF-9. If no packets are shown the sender has not sent any weather packets the latest 10 day(s).
| Time | Temp. | Humidity | Pressure | Rain* | Wind** | Luminosity | Snow |
|---|---|---|---|---|---|---|---|
| 1777479239 | 27.78° C | 14% | 998.3 hPa | - | - | - | - |
| 1777478338 | 31.11° C | 15% | 998.4 hPa | - | - | - | - |
| 1777477437 | 29.44° C | 15% | 998.4 hPa | - | - | - | - |
| 1777476537 | 27.22° C | 15% | 998.4 hPa | - | - | - | - |
| 1777475636 | 28.89° C | 14% | 998.4 hPa | - | - | - | - |
| 1777474736 | 31.11° C | 14% | 998.5 hPa | - | - | - | - |
| 1777473835 | 28.33° C | 15% | 998.4 hPa | - | - | - | - |
| 1777472935 | 27.22° C | 15% | 998.6 hPa | - | - | - | - |
| 1777472034 | 27.22° C | 15% | 998.6 hPa | - | - | - | - |
| 1777471133 | 28.33° C | 14% | 998.8 hPa | - | - | - | - |
| 1777470232 | 29.44° C | 14% | 998.8 hPa | - | - | - | - |
| 1777469332 | 32.22° C | 13% | 998.8 hPa | - | - | - | - |
| 1777468431 | 31.67° C | 14% | 998.7 hPa | - | - | - | - |
| 1777467531 | 30.56° C | 15% | 998.9 hPa | - | - | - | - |
| 1777466630 | 30° C | 15% | 999 hPa | - | - | - | - |
| 1777465729 | 29.44° C | 16% | 999.2 hPa | - | - | - | - |
| 1777464829 | 29.44° C | 16% | 999.1 hPa | - | - | - | - |
| 1777463928 | 27.78° C | 18% | 999.1 hPa | - | - | - | - |
| 1777463027 | 27.22° C | 19% | 999.3 hPa | - | - | - | - |
| 1777462126 | 26.67° C | 20% | 999.4 hPa | - | - | - | - |
| 1777461225 | 26.11° C | 21% | 999.5 hPa | - | - | - | - |
| 1777460324 | 26.11° C | 22% | 999.5 hPa | - | - | - | - |
| 1777459423 | 25° C | 23% | 999.4 hPa | - | - | - | - |
| 1777458522 | 23.89° C | 24% | 999.4 hPa | - | - | - | - |
| 1777457621 | 23.89° C | 24% | 999.4 hPa | - | - | - | - |
* Rain since midnight (hover to see other rain measurements)
** Current wind speed in m/s (hover to see current wind gust speed)